Time,TemperatureF,DewpointF,PressureIn,WindDirection,WindDirectionDegrees,WindSpeedMPH,WindSpeedGustMPH,Humidity,HourlyPrecipIn,Conditions,Clouds,dailyrainin,SoftwareType,DateUTC
2013-05-15 00:01:00,50.0,-99.9,30.16,East,98,4.0,4.0,-999,-99.99,,,-99.99,,2013-05-15 07:01:00,
2013-05-15 00:11:00,50.0,-99.9,30.15,East,94,4.0,6.0,-999,-99.99,,,-99.99,,2013-05-15 07:11:00,
2013-05-15 00:22:00,50.0,-99.9,30.15,NE,55,2.0,4.0,-999,-99.99,,,-99.99,,2013-05-15 07:22:00,
2013-05-15 00:32:00,50.0,-99.9,30.15,East,84,2.0,4.0,-999,-99.99,,,-99.99,,2013-05-15 07:32:00,
2013-05-15 00:42:00,50.0,-99.9,30.15,East,94,4.0,5.0,-999,-99.99,,,-99.99,,2013-05-15 07:42:00,
2013-05-15 00:52:00,49.0,-99.9,30.15,NE,54,2.0,3.0,-999,-99.99,,,-99.99,,2013-05-15 07:52:00,
2013-05-15 01:02:00,49.0,-99.9,30.15,NE,46,2.0,3.0,-999,-99.99,,,-99.99,,2013-05-15 08:02:00,
2013-05-15 01:12:00,49.0,-99.9,30.15,ENE,74,2.0,3.0,-999,-99.99,,,-99.99,,2013-05-15 08:12:00,
2013-05-15 01:21:00,49.0,-99.9,30.15,ESE,107,4.0,4.0,-999,-99.99,,,-99.99,,2013-05-15 08:21:00,
2013-05-15 01:32:00,49.0,-99.9,30.15,East,82,4.0,4.0,-999,-99.99,,,-99.99,,2013-05-15 08:32:00,
2013-05-15 01:42:00,49.0,-99.9,30.14,East,101,4.0,5.0,-999,-99.99,,,-99.99,,2013-05-15 08:42:00,
2013-05-15 01:53:00,49.0,-99.9,30.14,East,92,6.0,7.0,-999,-99.99,,,-99.99,,2013-05-15 08:53:00,
2013-05-15 02:01:00,49.0,-99.9,30.14,East,94,4.0,6.0,-999,-99.99,,,-99.99,,2013-05-15 09:01:00,
2013-05-15 02:12:00,49.0,-99.9,30.14,East,94,4.0,6.0,-999,-99.99,,,-99.99,,2013-05-15 09:12:00,
2013-05-15 02:22:00,49.0,-99.9,30.14,East,100,3.0,4.0,-999,-99.99,,,-99.99,,2013-05-15 09:22:00,
2013-05-15 02:33:00,49.0,-99.9,30.14,East,99,4.0,4.0,-999,-99.99,,,-99.99,,2013-05-15 09:33:00,
2013-05-15 02:42:00,49.0,-99.9,30.14,East,97,4.0,6.0,-999,-99.99,,,-99.99,,2013-05-15 09:42:00,
2013-05-15 02:53:00,48.0,-99.9,30.14,East,94,5.0,6.0,-999,-99.99,,,-99.99,,2013-05-15 09:53:00,
2013-05-15 03:02:00,48.0,-99.9,30.13,East,92,4.0,6.0,-999,-99.99,,,-99.99,,2013-05-15 10:02:00,
2013-05-15 03:13:00,48.0,-99.9,30.13,East,92,4.0,5.0,-999,-99.99,,,-99.99,,2013-05-15 10:13:00,
2013-05-15 03:23:00,48.0,-99.9,30.14,ESE,109,4.0,4.0,-999,-99.99,,,-99.99,,2013-05-15 10:23:00,
2013-05-15 03:32:00,48.0,-99.9,30.13,ESE,103,4.0,5.0,-999,-99.99,,,-99.99,,2013-05-15 10:32:00,
2013-05-15 03:43:00,49.0,-99.9,30.13,East,97,4.0,5.0,-999,-99.99,,,-99.99,,2013-05-15 10:43:00,
2013-05-15 03:53:00,48.0,-99.9,30.13,East,85,4.0,4.0,-999,-99.99,,,-99.99,,2013-05-15 10:53:00,
2013-05-15 04:14:00,48.0,-99.9,30.13,ESE,102,5.0,6.0,-999,-99.99,,,-99.99,,2013-05-15 11:14:00,
2013-05-15 04:19:00,48.0,-99.9,30.13,ESE,104,4.0,5.0,-999,-99.99,,,-99.99,,2013-05-15 11:19:00,
2013-05-15 04:29:00,48.0,-99.9,30.12,East,92,5.0,6.0,-999,-99.99,,,-99.99,,2013-05-15 11:29:00,
2013-05-15 04:40:00,48.0,-99.9,30.12,East,96,6.0,7.0,-999,-99.99,,,-99.99,,2013-05-15 11:40:00,
2013-05-15 04:50:00,48.0,-99.9,30.11,ESE,102,7.0,8.0,-999,-99.99,,,-99.99,,2013-05-15 11:50:00,
2013-05-15 05:02:00,48.0,-99.9,30.11,ESE,106,6.0,8.0,-999,-99.99,,,-99.99,,2013-05-15 12:02:00,
2013-05-15 05:11:00,48.0,-99.9,30.11,ESE,107,7.0,7.0,-999,-99.99,,,-99.99,,2013-05-15 12:11:00,
2013-05-15 05:17:00,48.0,-99.9,30.11,East,100,6.0,7.0,-999,-99.99,,,-99.99,,2013-05-15 12:17:00,
2013-05-15 05:30:00,48.0,-99.9,30.10,East,99,7.0,8.0,-999,-99.99,,,-99.99,,2013-05-15 12:30:00,
2013-05-15 05:38:00,48.0,-99.9,30.10,East,99,5.0,7.0,-999,-99.99,,,-99.99,,2013-05-15 12:38:00,
2013-05-15 05:49:00,48.0,-99.9,30.10,East,96,6.0,7.0,-999,-99.99,,,-99.99,,2013-05-15 12:49:00,
2013-05-15 05:58:00,48.0,-99.9,30.10,East,98,6.0,6.0,-999,-99.99,,,-99.99,,2013-05-15 12:58:00,
2013-05-15 06:12:00,48.0,-99.9,30.10,East,96,4.0,5.0,-999,-99.99,,,-99.99,,2013-05-15 13:12:00,
2013-05-15 06:19:00,48.0,-99.9,30.11,ESE,109,6.0,6.0,-999,-99.99,,,-99.99,,2013-05-15 13:19:00,
2013-05-15 06:37:00,48.0,-99.9,30.10,East,95,6.0,6.0,-999,-99.99,,,-99.99,,2013-05-15 13:37:00,
2013-05-15 06:48:00,48.0,-99.9,30.11,ESE,107,6.0,7.0,-999,-99.99,,,-99.99,,2013-05-15 13:48:00,
2013-05-15 07:00:00,48.0,-99.9,30.11,ESE,113,6.0,7.0,-999,-99.99,,,-99.99,,2013-05-15 14:00:00,
2013-05-15 07:08:00,48.0,-99.9,30.11,ESE,112,6.0,7.0,-999,-99.99,,,-99.99,,2013-05-15 14:08:00,
2013-05-15 07:14:00,48.0,-99.9,30.11,East,101,7.0,8.0,-999,-99.99,,,-99.99,,2013-05-15 14:14:00,
2013-05-15 07:28:00,48.0,-99.9,30.11,East,100,6.0,8.0,-999,-99.99,,,-99.99,,2013-05-15 14:28:00,
2013-05-15 07:39:00,48.0,-99.9,30.11,East,97,5.0,7.0,-999,-99.99,,,-99.99,,2013-05-15 14:39:00,
2013-05-15 07:52:00,48.0,-99.9,30.11,ESE,106,6.0,6.0,-999,-99.99,,,-99.99,,2013-05-15 14:52:00,
2013-05-15 07:59:00,48.0,-99.9,30.11,ESE,106,6.0,7.0,-999,-99.99,,,-99.99,,2013-05-15 14:59:00,
2013-05-15 08:10:00,48.0,-99.9,30.12,East,98,6.0,7.0,-999,-99.99,,,-99.99,,2013-05-15 15:10:00,
2013-05-15 08:16:00,48.0,-99.9,30.12,East,96,6.0,7.0,-999,-99.99,,,-99.99,,2013-05-15 15:16:00,
2013-05-15 08:29:00,48.0,-99.9,30.12,East,90,5.0,6.0,-999,-99.99,,,-99.99,,2013-05-15 15:29:00,
2013-05-15 08:50:00,48.0,-99.9,30.12,ESE,116,4.0,6.0,-999,-99.99,,,-99.99,,2013-05-15 15:50:00,
2013-05-15 09:02:00,48.0,-99.9,30.12,ESE,114,6.0,7.0,-999,-99.99,,,-99.99,,2013-05-15 16:02:00,
2013-05-15 09:10:00,48.0,-99.9,30.12,ESE,103,6.0,7.0,-999,-99.99,,,-99.99,,2013-05-15 16:10:00,
2013-05-15 09:24:00,48.0,-99.9,30.12,ESE,108,5.0,6.0,-999,-99.99,,,-99.99,,2013-05-15 16:24:00,
2013-05-15 09:40:00,49.0,-99.9,30.12,ESE,112,5.0,6.0,-999,-99.99,,,-99.99,,2013-05-15 16:40:00,
2013-05-15 09:52:00,49.0,-99.9,30.12,ESE,110,5.0,6.0,-999,-99.99,,,-99.99,,2013-05-15 16:52:00,
2013-05-15 10:02:00,50.0,-99.9,30.12,ESE,121,5.0,6.0,-999,-99.99,,,-99.99,,2013-05-15 17:02:00,
2013-05-15 10:13:00,50.0,-99.9,30.12,SE,128,5.0,7.0,-999,-99.99,,,-99.99,,2013-05-15 17:13:00,
2013-05-15 10:21:00,50.0,-99.9,30.12,ESE,103,6.0,7.0,-999,-99.99,,,-99.99,,2013-05-15 17:21:00,
2013-05-15 10:29:00,50.0,-99.9,30.12,East,97,6.0,8.0,-999,-99.99,,,-99.99,,2013-05-15 17:29:00,
2013-05-15 10:38:00,50.0,-99.9,30.12,ESE,107,5.0,6.0,-999,-99.99,,,-99.99,,2013-05-15 17:38:00,
2013-05-15 10:49:00,50.0,-99.9,30.12,ESE,106,5.0,6.0,-999,-99.99,,,-99.99,,2013-05-15 17:49:00,
2013-05-15 10:59:00,51.0,-99.9,30.12,East,99,5.0,6.0,-999,-99.99,,,-99.99,,2013-05-15 17:59:00,
2013-05-15 11:17:00,52.0,-99.9,30.11,ESE,110,7.0,9.0,-999,-99.99,,,-99.99,,2013-05-15 18:17:00,
2013-05-15 11:28:00,52.0,-99.9,30.11,ESE,105,6.0,7.0,-999,-99.99,,,-99.99,,2013-05-15 18:28:00,
2013-05-15 11:50:00,52.0,-99.9,30.11,ESE,122,7.0,9.0,-999,-99.99,,,-99.99,,2013-05-15 18:50:00,
2013-05-15 11:58:00,53.0,-99.9,30.11,ESE,107,7.0,9.0,-999,-99.99,,,-99.99,,2013-05-15 18:58:00,
2013-05-15 12:09:00,53.0,-99.9,30.11,ESE,114,10.0,13.0,-999,-99.99,,,-99.99,,2013-05-15 19:09:00,
2013-05-15 12:16:00,54.0,-99.9,30.11,ESE,121,11.0,12.0,-999,-99.99,,,-99.99,,2013-05-15 19:16:00,
2013-05-15 12:39:00,54.0,-99.9,30.11,SE,124,8.0,10.0,-999,-99.99,,,-99.99,,2013-05-15 19:39:00,
2013-05-15 12:59:00,54.0,-99.9,30.10,East,97,7.0,9.0,-999,-99.99,,,-99.99,,2013-05-15 19:59:00,
2013-05-15 13:10:00,55.0,-99.9,30.10,East,100,7.0,9.0,-999,-99.99,,,-99.99,,2013-05-15 20:10:00,
2013-05-15 13:20:00,55.0,-99.9,30.09,East,85,7.0,10.0,-999,-99.99,,,-99.99,,2013-05-15 20:20:00,
2013-05-15 13:40:00,56.0,-99.9,30.09,ESE,105,4.0,8.0,-999,-99.99,,,-99.99,,2013-05-15 20:40:00,
2013-05-15 13:47:00,56.0,-99.9,30.09,West,261,5.0,9.0,-999,-99.99,,,-99.99,,2013-05-15 20:47:00,
2013-05-15 14:00:00,55.0,-99.9,30.09,West,262,7.0,9.0,-999,-99.99,,,-99.99,,2013-05-15 21:00:00,
2013-05-15 14:09:00,55.0,-99.9,30.09,WSW,243,8.0,12.0,-999,-99.99,,,-99.99,,2013-05-15 21:09:00,
2013-05-15 14:21:00,56.0,-99.9,30.09,WSW,238,5.0,10.0,-999,-99.99,,,-99.99,,2013-05-15 21:21:00,
2013-05-15 14:28:00,55.0,-99.9,30.09,WSW,246,6.0,9.0,-999,-99.99,,,-99.99,,2013-05-15 21:28:00,
2013-05-15 14:42:00,55.0,-99.9,30.09,WSW,243,9.0,13.0,-999,-99.99,,,-99.99,,2013-05-15 21:42:00,
2013-05-15 14:54:00,55.0,-99.9,30.10,SW,230,8.0,13.0,-999,-99.99,,,-99.99,,2013-05-15 21:54:00,
2013-05-15 15:01:00,55.0,-99.9,30.10,WSW,246,8.0,11.0,-999,-99.99,,,-99.99,,2013-05-15 22:01:00,
2013-05-15 15:12:00,55.0,-99.9,30.09,WSW,237,8.0,10.0,-999,-99.99,,,-99.99,,2013-05-15 22:12:00,
2013-05-15 15:19:00,55.0,-99.9,30.09,SSW,205,7.0,11.0,-999,-99.99,,,-99.99,,2013-05-15 22:19:00,
2013-05-15 15:30:00,57.0,-99.9,30.09,South,174,7.0,11.0,-999,-99.99,,,-99.99,,2013-05-15 22:30:00,
2013-05-15 15:42:00,58.0,-99.9,30.09,SSW,208,7.0,11.0,-999,-99.99,,,-99.99,,2013-05-15 22:42:00,
2013-05-15 15:53:00,57.0,-99.9,30.09,SW,234,9.0,13.0,-999,-99.99,,,-99.99,,2013-05-15 22:53:00,
2013-05-15 16:10:00,56.0,-99.9,30.09,SW,231,11.0,15.0,-999,-99.99,,,-99.99,,2013-05-15 23:10:00,
2013-05-15 16:18:00,56.0,-99.9,30.09,SSW,212,10.0,13.0,-999,-99.99,,,-99.99,,2013-05-15 23:18:00,
2013-05-15 16:31:00,55.0,-99.9,30.09,SSW,211,8.0,15.0,-999,-99.99,,,-99.99,,2013-05-15 23:31:00,
2013-05-15 16:40:00,57.0,-99.9,30.08,South,171,8.0,14.0,-999,-99.99,,,-99.99,,2013-05-15 23:40:00,
2013-05-15 17:01:00,58.0,-99.9,30.08,SW,217,6.0,14.0,-999,-99.99,,,-99.99,,2013-05-16 00:01:00,
2013-05-15 17:09:00,56.0,-99.9,30.08,SW,216,9.0,16.0,-999,-99.99,,,-99.99,,2013-05-16 00:09:00,
2013-05-15 17:19:00,56.0,-99.9,30.08,SW,219,7.0,15.0,-999,-99.99,,,-99.99,,2013-05-16 00:19:00,
2013-05-15 17:27:00,56.0,-99.9,30.08,SW,214,11.0,16.0,-999,-99.99,,,-99.99,,2013-05-16 00:27:00,
2013-05-15 17:37:00,56.0,-99.9,30.07,SW,216,10.0,15.0,-999,-99.99,,,-99.99,,2013-05-16 00:37:00,
2013-05-15 17:52:00,56.0,-99.9,30.07,SW,214,10.0,16.0,-999,-99.99,,,-99.99,,2013-05-16 00:52:00,
2013-05-15 17:59:00,56.0,-99.9,30.07,SW,219,12.0,16.0,-999,-99.99,,,-99.99,,2013-05-16 00:59:00,
2013-05-15 18:09:00,56.0,-99.9,30.07,SSW,195,10.0,15.0,-999,-99.99,,,-99.99,,2013-05-16 01:09:00,
2013-05-15 18:19:00,56.0,-99.9,30.07,SSW,200,10.0,14.0,-999,-99.99,,,-99.99,,2013-05-16 01:19:00,
2013-05-15 18:30:00,57.0,-99.9,30.07,SSW,197,9.0,17.0,-999,-99.99,,,-99.99,,2013-05-16 01:30:00,
2013-05-15 18:40:00,56.0,-99.9,30.07,SSW,212,14.0,19.0,-999,-99.99,,,-99.99,,2013-05-16 01:40:00,
2013-05-15 18:50:00,56.0,-99.9,30.06,SSW,199,11.0,17.0,-999,-99.99,,,-99.99,,2013-05-16 01:50:00,
2013-05-15 19:02:00,56.0,-99.9,30.06,SW,215,12.0,16.0,-999,-99.99,,,-99.99,,2013-05-16 02:02:00,
2013-05-15 19:08:00,56.0,-99.9,30.06,SSW,200,11.0,19.0,-999,-99.99,,,-99.99,,2013-05-16 02:08:00,
2013-05-15 19:18:00,56.0,-99.9,30.06,SSW,208,11.0,19.0,-999,-99.99,,,-99.99,,2013-05-16 02:18:00,
2013-05-15 19:29:00,55.0,-99.9,30.06,SSW,193,11.0,19.0,-999,-99.99,,,-99.99,,2013-05-16 02:29:00,
2013-05-15 19:40:00,55.0,-99.9,30.06,SSW,202,11.0,16.0,-999,-99.99,,,-99.99,,2013-05-16 02:40:00,
2013-05-15 19:49:00,55.0,-99.9,30.06,SSW,202,11.0,16.0,-999,-99.99,,,-99.99,,2013-05-16 02:49:00,
2013-05-15 19:56:00,55.0,-99.9,30.06,SSW,202,11.0,16.0,-999,-99.99,,,-99.99,,2013-05-16 02:56:00,
2013-05-15 20:07:00,55.0,-99.9,30.06,SSW,201,7.0,10.0,-999,-99.99,,,-99.99,,2013-05-16 03:07:00,
2013-05-15 20:17:00,55.0,-99.9,30.06,South,189,7.0,14.0,-999,-99.99,,,-99.99,,2013-05-16 03:17:00,
2013-05-15 20:28:00,55.0,-99.9,30.06,SSW,204,10.0,13.0,-999,-99.99,,,-99.99,,2013-05-16 03:28:00,
2013-05-15 20:41:00,55.0,-99.9,30.05,South,173,7.0,13.0,-999,-99.99,,,-99.99,,2013-05-16 03:41:00,
2013-05-15 20:47:00,55.0,-99.9,30.05,SSE,167,6.0,8.0,-999,-99.99,,,-99.99,,2013-05-16 03:47:00,
2013-05-15 21:03:00,55.0,-99.9,30.04,South,188,3.0,6.0,-999,-99.99,,,-99.99,,2013-05-16 04:03:00,
2013-05-15 21:12:00,55.0,-99.9,30.04,SSE,156,2.0,6.0,-999,-99.99,,,-99.99,,2013-05-16 04:12:00,
2013-05-15 21:23:00,55.0,-99.9,30.04,SSW,205,4.0,6.0,-999,-99.99,,,-99.99,,2013-05-16 04:23:00,
2013-05-15 21:33:00,55.0,-99.9,30.04,SSE,161,2.0,3.0,-999,-99.99,,,-99.99,,2013-05-16 04:33:00,
2013-05-15 21:43:00,55.0,-99.9,30.04,SSW,212,1.0,2.0,-999,-99.99,,,-99.99,,2013-05-16 04:43:00,
2013-05-15 21:53:00,55.0,-99.9,30.05,SSW,204,2.0,3.0,-999,-99.99,,,-99.99,,2013-05-16 04:53:00,
2013-05-15 22:03:00,55.0,-99.9,30.05,SSW,198,11.0,13.0,-999,-99.99,,,-99.99,,2013-05-16 05:03:00,
2013-05-15 22:12:00,55.0,-99.9,30.05,South,188,7.0,10.0,-999,-99.99,,,-99.99,,2013-05-16 05:12:00,
2013-05-15 22:22:00,55.0,-99.9,30.04,South,181,6.0,8.0,-999,-99.99,,,-99.99,,2013-05-16 05:22:00,
2013-05-15 22:32:00,55.0,-99.9,30.04,SSE,148,8.0,11.0,-999,-99.99,,,-99.99,,2013-05-16 05:32:00,
2013-05-15 22:42:00,54.0,-99.9,30.04,SSE,147,7.0,11.0,-999,-99.99,,,-99.99,,2013-05-16 05:42:00,
2013-05-15 22:52:00,54.0,-99.9,30.04,SE,127,6.0,7.0,-999,-99.99,,,-99.99,,2013-05-16 05:52:00,
2013-05-15 23:02:00,54.0,-99.9,30.04,SE,127,5.0,8.0,-999,-99.99,,,-99.99,,2013-05-16 06:02:00,
2013-05-15 23:12:00,54.0,-99.9,30.04,ESE,121,4.0,6.0,-999,-99.99,,,-99.99,,2013-05-16 06:12:00,
2013-05-15 23:23:00,54.0,-99.9,30.04,ESE,118,4.0,5.0,-999,-99.99,,,-99.99,,2013-05-16 06:23:00,
2013-05-15 23:33:00,54.0,-99.9,30.04,SE,127,5.0,6.0,-999,-99.99,,,-99.99,,2013-05-16 06:33:00,
2013-05-15 23:43:00,54.0,-99.9,30.03,SE,139,4.0,5.0,-999,-99.99,,,-99.99,,2013-05-16 06:43:00,
2013-05-15 23:53:00,54.0,-99.9,30.03,SE,145,3.0,4.0,-999,-99.99,,,-99.99,,2013-05-16 06:53:00,